Location: Pcim
(49.7500°N, 19.9670°E)
Time: 09:25:59
(UTC+02:00)

EO-79 - Pass Details

Date: 25 April 2024
Orbit: 563 x 574 km, 98.0° (Epoch: 20 May)

Event Time Altitude Azimuth Distance (km) Brightness Sun altitude
Rises 03:07:03 0° 23° (NNE) 2,801 ? -19.0°
Reaches altitude 10° 03:09:29 10° 36° (NE) 1,899 ? -18.7°
Maximum altitude 03:13:00 27° 95° (E) 1,125 ? -18.4°
Enters shadow 03:16:28 10° 154° (SSE) 1,870 ? -18.0°
